Regional Weather Roundup
Issued by NWS

Home | Current Version | Previous Version | Text Only | Print | Product List | Glossary Off
Versions: 1 2 3 4 5 6 7 8 9 10 11 12 13 14 15 16 17 18 19 20 21 22 23 24 25 26 27 28 29 30 31 32 33 34 35 36 37 38 39 40 41 42 43 44 45 46 47 48 49 50

000
ASUS43 KBIS 191710
RWRND

NORTH DAKOTA REGIONAL WEATHER ROUNDUP
NATIONAL WEATHER SERVICE BISMARCK ND
1100 AM CST SUN FEB 19 2017

NOTE: "FAIR" INDICATES FEW OR NO CLOUDS BELOW 12,000 FEET WITH NO
SIGNIFICANT WEATHER AND/OR OBSTRUCTIONS TO VISIBILITY.


NDZ001>003-009>011-017-191800-
NORTHWEST NORTH DAKOTA

CITY           SKY/WX    TMP DP  RH WIND       PRES   REMARKS
WILLISTON      CLOUDY    34  32  92 E13       29.52F FOG
MINOT          CLOUDY    36  33  89 E12       29.58F FOG
MINOT AFB      CLOUDY    34  32  93 E12       29.57F
$$

NDZ018>021-031>035-040>046-191800-
SOUTHWEST NORTH DAKOTA

CITY           SKY/WX    TMP DP  RH WIND       PRES   REMARKS
BISMARCK       FAIR      39  34  82 E10       29.57F
DICKINSON      FAIR      37  35  92 E7        29.47F
GARRISON         N/A     38  33  82 E10       29.54
HETTINGER ARPT CLOUDY    40  33  76 SE8       29.50F
$$

NDZ004>008-012>016-024-026-027-054-191800-
NORTHEAST NORTH DAKOTA

CITY           SKY/WX    TMP DP  RH WIND       PRES   REMARKS
GRAND FORKS    CLOUDY    39  32  76 SE13      29.74F
GRND FRKS AFB  CLOUDY    38  35  87 S10       29.74F
DEVILS LAKE    FAIR      36  33  89 E15G23    29.66F
$$

NDZ022-023-025-028>030-036>039-047>053-191800-
SOUTHEAST NORTH DAKOTA

CITY           SKY/WX    TMP DP  RH WIND       PRES   REMARKS
FARGO          CLOUDY    47  39  74 SE17G23   29.72F
JAMESTOWN      FAIR      39  35  86 SE16      29.64F
$$




USA.gov is the U.S. government's official web portal to all federal, state and local government web resources and services.